Location: G�kdere
(37.0328°N, 30.9000°E)
Time: 05:45:29
(UTC+00:00)

HJ-1C - Pass Details

Date: 03 March 2021
Orbit: 428 x 440 km, 97.1° (Epoch: 20 April)

Event Time Altitude Azimuth Distance (km) Brightness Sun altitude
Rises 16:51:11 0° 163° (SSE) 2,416 6.9 -12.5°
Reaches altitude 10° 16:53:12 10° 161° (SSE) 1,549 5.9 -12.9°
Maximum altitude 16:56:30 70° 77° (ENE) 471 3.2 -13.6°
Drops below altitude 10° 16:59:49 10° 354° (N) 1,555 6.2 -14.2°
Sets 17:01:51 0° 352° (N) 2,426 7.3 -14.6°
